Time,TemperatureF,DewpointF,PressureIn,WindDirection,WindDirectionDegrees,WindSpeedMPH,WindSpeedGustMPH,Humidity,HourlyPrecipIn,Conditions,Clouds,dailyrainin,SoftwareType,DateUTC
2013-05-10 00:00:00,65.9,59.6,30.02,South,190,0.0,2.0,80,0.00,,SKC,0.00,VWS V13.00,2013-05-10 05:00:00,
2013-05-10 00:01:00,65.9,59.9,30.02,South,190,1.0,2.0,81,0.00,,SKC,0.00,VWS V13.00,2013-05-10 05:01:00,
2013-05-10 00:06:00,66.0,59.7,30.02,South,190,0.0,2.0,80,0.00,,SKC,0.00,VWS V13.00,2013-05-10 05:06:00,
2013-05-10 00:11:00,66.0,59.7,30.02,South,190,0.0,2.0,80,0.00,,SKC,0.00,VWS V13.00,2013-05-10 05:11:00,
2013-05-10 00:16:00,66.0,59.7,30.02,SSW,193,0.0,4.0,80,0.00,,SKC,0.00,VWS V13.00,2013-05-10 05:16:00,
2013-05-10 00:21:00,65.9,59.9,30.02,SSW,193,0.0,4.0,81,0.00,,SKC,0.00,VWS V13.00,2013-05-10 05:21:00,
2013-05-10 00:26:00,65.6,60.0,30.02,SSW,193,1.0,4.0,82,0.00,,SKC,0.00,VWS V13.00,2013-05-10 05:26:00,
2013-05-10 00:30:00,65.3,59.7,30.02,South,184,2.0,5.0,82,0.00,,SKC,0.00,VWS V13.00,2013-05-10 05:30:00,
2013-05-10 00:31:00,65.3,59.3,30.02,South,180,1.0,5.0,81,0.00,,SKC,0.00,VWS V13.00,2013-05-10 05:31:00,
2013-05-10 00:36:00,65.3,59.3,30.01,South,184,2.0,2.0,81,0.00,,SKC,0.00,VWS V13.00,2013-05-10 05:36:00,
2013-05-10 00:41:00,65.3,59.7,30.01,South,179,4.0,4.0,82,0.00,,SKC,0.00,VWS V13.00,2013-05-10 05:41:00,
2013-05-10 00:46:00,65.1,59.5,30.01,South,180,2.0,4.0,82,0.00,,SKC,0.00,VWS V13.00,2013-05-10 05:46:00,
2013-05-10 00:51:00,65.2,59.2,30.01,South,171,0.0,5.0,81,0.00,,SKC,0.00,VWS V13.00,2013-05-10 05:51:00,
2013-05-10 00:56:00,65.3,59.7,30.00,South,173,0.0,5.0,82,0.00,,SKC,0.00,VWS V13.00,2013-05-10 05:56:00,
2013-05-10 01:00:00,64.9,59.3,30.00,South,173,0.0,5.0,82,0.00,,SKC,0.00,VWS V13.00,2013-05-10 06:00:00,
2013-05-10 01:01:00,65.0,59.7,30.00,South,173,1.0,5.0,83,0.00,,SKC,0.00,VWS V13.00,2013-05-10 06:01:00,
2013-05-10 01:06:00,64.4,59.1,30.00,South,173,0.0,0.0,83,0.00,,SKC,0.00,VWS V13.00,2013-05-10 06:06:00,
2013-05-10 01:11:00,63.8,59.2,29.99,South,173,0.0,1.0,85,0.00,,SKC,0.00,VWS V13.00,2013-05-10 06:11:00,
2013-05-10 01:16:00,63.2,59.0,29.99,South,171,0.0,2.0,86,0.00,,SKC,0.00,VWS V13.00,2013-05-10 06:16:00,
2013-05-10 01:21:00,62.9,59.0,29.99,SSE,168,5.0,5.0,87,0.00,,SKC,0.00,VWS V13.00,2013-05-10 06:21:00,
2013-05-10 01:26:00,63.4,59.2,29.99,South,177,1.0,6.0,86,0.00,,SKC,0.00,VWS V13.00,2013-05-10 06:26:00,
2013-05-10 01:30:00,63.9,59.3,29.99,SSE,160,5.0,6.0,85,0.00,,SKC,0.00,VWS V13.00,2013-05-10 06:30:00,
2013-05-10 01:31:00,63.8,59.2,29.99,South,182,2.0,6.0,85,0.00,,SKC,0.00,VWS V13.00,2013-05-10 06:31:00,
2013-05-10 01:36:00,64.2,59.3,29.99,South,179,1.0,5.0,84,0.00,,SKC,0.00,VWS V13.00,2013-05-10 06:36:00,
2013-05-10 01:41:00,64.5,59.6,29.98,SSE,167,1.0,6.0,84,0.00,,SKC,0.00,VWS V13.00,2013-05-10 06:41:00,
2013-05-10 01:46:00,64.6,59.3,29.97,South,171,2.0,6.0,83,0.00,,SKC,0.00,VWS V13.00,2013-05-10 06:46:00,
2013-05-10 01:51:00,64.7,59.4,29.97,SSE,166,0.0,6.0,83,0.00,,SKC,0.00,VWS V13.00,2013-05-10 06:51:00,
2013-05-10 01:55:00,64.8,59.5,29.97,South,175,4.0,6.0,83,0.00,,SKC,0.00,VWS V13.00,2013-05-10 06:55:00,
2013-05-10 02:00:00,65.0,59.4,29.97,South,169,1.0,6.0,82,0.00,,SKC,0.00,VWS V13.00,2013-05-10 07:00:00,
2013-05-10 02:05:00,64.9,59.6,29.97,South,169,0.0,2.0,83,0.00,,SKC,0.00,VWS V13.00,2013-05-10 07:05:00,
2013-05-10 02:10:00,64.5,59.2,29.97,SSW,201,4.0,4.0,83,0.00,,SKC,0.00,VWS V13.00,2013-05-10 07:10:00,
2013-05-10 02:15:00,63.9,59.0,29.97,SSW,193,1.0,4.0,84,0.00,,SKC,0.00,VWS V13.00,2013-05-10 07:15:00,
2013-05-10 02:20:00,63.3,59.0,29.97,South,171,1.0,5.0,86,0.00,,SKC,0.00,VWS V13.00,2013-05-10 07:20:00,
2013-05-10 02:25:00,63.3,59.0,29.97,SSE,163,6.0,7.0,86,0.00,,SKC,0.00,VWS V13.00,2013-05-10 07:25:00,
2013-05-10 02:30:00,63.7,59.1,29.96,South,171,4.0,7.0,85,0.00,,SKC,0.00,VWS V13.00,2013-05-10 07:30:00,
2013-05-10 02:35:00,63.8,59.2,29.96,SSW,192,4.0,6.0,85,0.00,,SKC,0.00,VWS V13.00,2013-05-10 07:35:00,
2013-05-10 02:40:00,63.8,59.2,29.96,South,177,4.0,9.0,85,0.00,,SKC,0.00,VWS V13.00,2013-05-10 07:40:00,
2013-05-10 02:45:00,64.1,59.2,29.96,South,184,2.0,9.0,84,0.00,,SKC,0.00,VWS V13.00,2013-05-10 07:45:00,
2013-05-10 02:50:00,64.5,59.6,29.96,South,186,2.0,9.0,84,0.00,,SKC,0.00,VWS V13.00,2013-05-10 07:50:00,
2013-05-10 02:55:00,64.7,59.4,29.96,South,177,6.0,9.0,83,0.00,,SKC,0.00,VWS V13.00,2013-05-10 07:55:00,
2013-05-10 03:00:00,64.9,59.3,29.95,South,179,6.0,9.0,82,0.00,,SKC,0.00,VWS V13.00,2013-05-10 08:00:00,
2013-05-10 03:05:00,64.9,59.3,29.95,South,170,2.0,9.0,82,0.00,,SKC,0.00,VWS V13.00,2013-05-10 08:05:00,
2013-05-10 03:10:00,64.8,59.2,29.95,South,171,8.0,9.0,82,0.00,,SKC,0.00,VWS V13.00,2013-05-10 08:10:00,
2013-05-10 03:15:00,64.8,59.5,29.94,South,185,5.0,9.0,83,0.00,,SKC,0.00,VWS V13.00,2013-05-10 08:15:00,
2013-05-10 03:20:00,64.8,59.2,29.95,South,184,4.0,10.0,82,0.00,,SKC,0.00,VWS V13.00,2013-05-10 08:20:00,
2013-05-10 03:25:00,64.9,59.6,29.94,SSW,192,6.0,11.0,83,0.00,,SKC,0.00,VWS V13.00,2013-05-10 08:25:00,
2013-05-10 03:30:00,64.8,59.2,29.95,SSW,198,6.0,11.0,82,0.00,,SKC,0.00,VWS V13.00,2013-05-10 08:30:00,
2013-05-10 03:35:00,64.8,59.5,29.95,SSE,157,5.0,9.0,83,0.00,,SKC,0.00,VWS V13.00,2013-05-10 08:35:00,
2013-05-10 03:40:00,64.6,59.3,29.95,South,187,5.0,9.0,83,0.00,,SKC,0.00,VWS V13.00,2013-05-10 08:40:00,
2013-05-10 03:45:00,64.4,59.1,29.95,SSW,198,6.0,9.0,83,0.00,,SKC,0.00,VWS V13.00,2013-05-10 08:45:00,
2013-05-10 03:50:00,64.3,59.4,29.95,South,175,2.0,9.0,84,0.00,,SKC,0.00,VWS V13.00,2013-05-10 08:50:00,
2013-05-10 03:55:00,64.4,59.5,29.95,SSW,202,5.0,9.0,84,0.00,,SKC,0.00,VWS V13.00,2013-05-10 08:55:00,
2013-05-10 04:00:00,64.2,59.3,29.95,SSW,192,8.0,9.0,84,0.00,,SKC,0.00,VWS V13.00,2013-05-10 09:00:00,
2013-05-10 04:05:00,64.0,59.1,29.94,South,190,6.0,7.0,84,0.00,,SKC,0.00,VWS V13.00,2013-05-10 09:05:00,
2013-05-10 04:10:00,63.9,59.3,29.94,South,178,5.0,10.0,85,0.00,,SKC,0.00,VWS V13.00,2013-05-10 09:10:00,
2013-05-10 04:15:00,63.9,59.3,29.94,South,174,2.0,10.0,85,0.00,,SKC,0.00,VWS V13.00,2013-05-10 09:15:00,
2013-05-10 04:20:00,63.8,59.2,29.94,SSW,213,5.0,10.0,85,0.00,,SKC,0.00,VWS V13.00,2013-05-10 09:20:00,
2013-05-10 04:25:00,63.7,59.4,29.94,SSW,200,3.0,10.0,86,0.00,,SKC,0.00,VWS V13.00,2013-05-10 09:25:00,
2013-05-10 04:30:00,63.6,59.3,29.94,South,184,2.0,10.0,86,0.00,,SKC,0.00,VWS V13.00,2013-05-10 09:30:00,
2013-05-10 04:35:00,63.6,59.3,29.93,SSW,195,2.0,9.0,86,0.00,,SKC,0.00,VWS V13.00,2013-05-10 09:35:00,
2013-05-10 04:40:00,63.6,59.3,29.93,South,172,5.0,9.0,86,0.00,,SKC,0.00,VWS V13.00,2013-05-10 09:40:00,
2013-05-10 04:45:00,63.6,59.3,29.93,South,173,5.0,9.0,86,0.00,,SKC,0.00,VWS V13.00,2013-05-10 09:45:00,
2013-05-10 04:50:00,63.5,59.2,29.93,South,172,3.0,9.0,86,0.00,,SKC,0.00,VWS V13.00,2013-05-10 09:50:00,
2013-05-10 04:55:00,63.4,59.5,29.93,South,190,8.0,9.0,87,0.00,,SKC,0.00,VWS V13.00,2013-05-10 09:55:00,
2013-05-10 05:00:00,63.5,59.6,29.93,SSW,205,4.0,9.0,87,0.00,,SKC,0.00,VWS V13.00,2013-05-10 10:00:00,
2013-05-10 05:05:00,63.6,59.7,29.94,South,189,6.0,7.0,87,0.00,,SKC,0.00,VWS V13.00,2013-05-10 10:05:00,
2013-05-10 05:10:00,63.7,59.4,29.94,SSW,198,5.0,8.0,86,0.00,,SKC,0.00,VWS V13.00,2013-05-10 10:10:00,
2013-05-10 05:15:00,63.7,59.4,29.94,SSW,193,5.0,8.0,86,0.00,,SKC,0.00,VWS V13.00,2013-05-10 10:15:00,
2013-05-10 05:20:00,63.7,59.8,29.94,South,184,7.0,8.0,87,0.00,,SKC,0.00,VWS V13.00,2013-05-10 10:20:00,
2013-05-10 05:25:00,63.7,59.8,29.95,South,182,1.0,8.0,87,0.00,,SKC,0.00,VWS V13.00,2013-05-10 10:25:00,
2013-05-10 05:30:00,63.6,59.7,29.95,South,189,2.0,8.0,87,0.00,,SKC,0.00,VWS V13.00,2013-05-10 10:30:00,
2013-05-10 05:35:00,63.4,59.5,29.95,SSW,197,2.0,6.0,87,0.00,,SKC,0.00,VWS V13.00,2013-05-10 10:35:00,
2013-05-10 05:40:00,63.3,59.4,29.96,SSW,203,5.0,6.0,87,0.00,,SKC,0.00,VWS V13.00,2013-05-10 10:40:00,
2013-05-10 05:45:00,63.2,59.6,29.96,South,180,4.0,7.0,88,0.00,,SKC,0.00,VWS V13.00,2013-05-10 10:45:00,
2013-05-10 05:50:00,63.3,59.7,29.97,SSW,192,4.0,7.0,88,0.00,,SKC,0.00,VWS V13.00,2013-05-10 10:50:00,
2013-05-10 05:55:00,63.3,59.7,29.98,SSW,206,1.0,7.0,88,0.00,,SKC,0.00,VWS V13.00,2013-05-10 10:55:00,
2013-05-10 06:00:00,63.4,59.8,29.99,WSW,247,2.0,7.0,88,0.00,,SKC,0.00,VWS V13.00,2013-05-10 11:00:00,
2013-05-10 06:05:00,63.4,59.8,30.00,WSW,247,1.0,2.0,88,0.00,,SKC,0.00,VWS V13.00,2013-05-10 11:05:00,
2013-05-10 06:10:00,63.3,60.0,30.00,SW,232,2.0,4.0,89,0.01,,SKC,0.01,VWS V13.00,2013-05-10 11:10:00,
2013-05-10 06:15:00,63.1,59.8,30.01,South,187,8.0,13.0,89,0.03,,SKC,0.03,VWS V13.00,2013-05-10 11:15:00,
2013-05-10 06:20:00,63.2,59.9,30.01,West,264,9.0,13.0,89,0.03,,SKC,0.03,VWS V13.00,2013-05-10 11:20:00,
2013-05-10 06:25:00,63.5,59.2,30.01,West,263,6.0,15.0,86,0.03,,SKC,0.03,VWS V13.00,2013-05-10 11:25:00,
2013-05-10 06:30:00,63.5,59.6,30.01,West,265,5.0,15.0,87,0.03,,SKC,0.03,VWS V13.00,2013-05-10 11:30:00,
2013-05-10 06:35:00,63.4,59.5,30.02,WSW,244,1.0,7.0,87,0.03,,SKC,0.03,VWS V13.00,2013-05-10 11:35:00,
2013-05-10 06:40:00,63.4,59.5,30.02,WNW,294,7.0,14.0,87,0.03,,SKC,0.03,VWS V13.00,2013-05-10 11:40:00,
2013-05-10 06:45:00,63.3,59.4,30.02,West,273,6.0,14.0,87,0.03,,SKC,0.03,VWS V13.00,2013-05-10 11:45:00,
2013-05-10 06:50:00,63.3,59.4,30.01,West,274,3.0,14.0,87,0.03,,SKC,0.03,VWS V13.00,2013-05-10 11:50:00,
2013-05-10 06:55:00,63.3,59.7,30.01,WNW,289,6.0,14.0,88,0.03,,SKC,0.03,VWS V13.00,2013-05-10 11:55:00,
2013-05-10 07:00:00,63.3,59.7,30.01,West,277,2.0,14.0,88,0.03,,SKC,0.03,VWS V13.00,2013-05-10 12:00:00,
2013-05-10 07:05:00,63.2,59.9,30.02,West,264,2.0,8.0,89,0.03,,SKC,0.03,VWS V13.00,2013-05-10 12:05:00,
2013-05-10 07:10:00,63.1,59.8,30.02,West,277,6.0,9.0,89,0.03,,SKC,0.03,VWS V13.00,2013-05-10 12:10:00,
2013-05-10 07:15:00,63.1,59.8,30.02,West,273,4.0,9.0,89,0.03,,SKC,0.03,VWS V13.00,2013-05-10 12:15:00,
2013-05-10 07:20:00,63.1,59.8,30.02,WNW,300,5.0,9.0,89,0.03,,SKC,0.03,VWS V13.00,2013-05-10 12:20:00,
2013-05-10 07:25:00,63.1,59.8,30.02,West,266,4.0,9.0,89,0.03,,SKC,0.03,VWS V13.00,2013-05-10 12:25:00,
2013-05-10 07:30:00,63.1,59.8,30.02,West,277,7.0,10.0,89,0.03,,SKC,0.03,VWS V13.00,2013-05-10 12:30:00,
2013-05-10 08:00:00,63.1,59.5,30.02,West,270,3.0,10.0,88,0.00,,SKC,0.03,VWS V13.00,2013-05-10 13:00:00,
2013-05-10 08:21:00,63.1,59.5,30.02,West,270,3.0,10.0,88,0.00,,SKC,0.03,VWS V13.00,2013-05-10 13:21:00,
2013-05-10 08:26:00,63.4,59.8,30.02,WSW,248,3.0,8.0,88,0.00,,SKC,0.03,VWS V13.00,2013-05-10 13:26:00,
2013-05-10 08:31:00,63.6,60.0,30.02,WSW,242,2.0,8.0,88,0.00,,SKC,0.03,VWS V13.00,2013-05-10 13:31:00,
2013-05-10 08:36:00,63.7,60.1,30.02,SSW,213,0.0,6.0,88,0.00,,SKC,0.03,VWS V13.00,2013-05-10 13:36:00,
2013-05-10 08:41:00,63.7,59.8,30.03,SW,217,5.0,8.0,87,0.00,,SKC,0.03,VWS V13.00,2013-05-10 13:41:00,
2013-05-10 08:46:00,63.7,59.8,30.03,SW,225,3.0,8.0,87,0.00,,SKC,0.03,VWS V13.00,2013-05-10 13:46:00,
2013-05-10 08:51:00,63.8,59.5,30.03,SSW,211,4.0,10.0,86,0.00,,SKC,0.03,VWS V13.00,2013-05-10 13:51:00,
2013-05-10 08:56:00,63.8,59.2,30.03,SW,227,1.0,13.0,85,0.00,,SKC,0.03,VWS V13.00,2013-05-10 13:56:00,
2013-05-10 09:01:00,63.8,59.2,30.03,SW,236,8.0,13.0,85,0.00,,SKC,0.03,VWS V13.00,2013-05-10 14:01:00,
2013-05-10 09:06:00,63.9,59.0,30.03,SW,226,3.0,10.0,84,0.00,,SKC,0.03,VWS V13.00,2013-05-10 14:06:00,
2013-05-10 09:11:00,64.1,59.5,30.03,SW,234,6.0,10.0,85,0.00,,SKC,0.03,VWS V13.00,2013-05-10 14:11:00,
2013-05-10 09:16:00,64.3,59.7,30.03,WSW,251,0.0,11.0,85,0.00,,SKC,0.03,VWS V13.00,2013-05-10 14:16:00,
2013-05-10 09:21:00,64.6,59.7,30.03,SW,228,4.0,11.0,84,0.00,,SKC,0.03,VWS V13.00,2013-05-10 14:21:00,
2013-05-10 09:26:00,64.7,59.4,30.03,SW,221,2.0,11.0,83,0.00,,SKC,0.03,VWS V13.00,2013-05-10 14:26:00,
2013-05-10 09:31:00,64.7,58.4,30.02,SSW,213,4.0,12.0,80,0.00,,SKC,0.03,VWS V13.00,2013-05-10 14:31:00,
2013-05-10 09:36:00,64.7,58.7,30.02,WSW,248,6.0,11.0,81,0.00,,SKC,0.03,VWS V13.00,2013-05-10 14:36:00,
2013-05-10 09:41:00,64.7,58.4,30.02,WSW,249,5.0,11.0,80,0.00,,SKC,0.03,VWS V13.00,2013-05-10 14:41:00,
2013-05-10 09:46:00,64.7,58.0,30.02,SSW,213,8.0,12.0,79,0.00,,SKC,0.03,VWS V13.00,2013-05-10 14:46:00,
2013-05-10 09:51:00,64.8,58.1,30.02,SW,225,1.0,12.0,79,0.00,,SKC,0.03,VWS V13.00,2013-05-10 14:51:00,
2013-05-10 09:56:00,64.8,57.8,30.02,SW,222,2.0,12.0,78,0.00,,SKC,0.03,VWS V13.00,2013-05-10 14:56:00,
2013-05-10 10:01:00,65.0,58.3,30.02,SW,217,5.0,12.0,79,0.00,,SKC,0.03,VWS V13.00,2013-05-10 15:01:00,
2013-05-10 10:06:00,65.2,58.5,30.02,SSW,199,3.0,9.0,79,0.00,,SKC,0.03,VWS V13.00,2013-05-10 15:06:00,
2013-05-10 10:11:00,65.5,58.8,30.02,SW,225,2.0,9.0,79,0.00,,SKC,0.03,VWS V13.00,2013-05-10 15:11:00,
2013-05-10 10:16:00,65.9,58.9,30.02,South,188,2.0,9.0,78,0.00,,SKC,0.03,VWS V13.00,2013-05-10 15:16:00,
2013-05-10 10:21:00,66.5,59.1,30.01,SSE,147,6.0,9.0,77,0.00,,SKC,0.03,VWS V13.00,2013-05-10 15:21:00,
2013-05-10 10:26:00,67.1,59.3,30.01,SSW,202,8.0,11.0,76,0.00,,SKC,0.03,VWS V13.00,2013-05-10 15:26:00,
2013-05-10 10:31:00,67.6,58.3,30.01,WSW,237,7.0,13.0,72,0.00,,SKC,0.03,VWS V13.00,2013-05-10 15:31:00,
2013-05-10 10:36:00,68.0,59.0,30.02,SW,229,6.0,8.0,73,0.00,,SKC,0.03,VWS V13.00,2013-05-10 15:36:00,
2013-05-10 10:41:00,68.3,59.3,30.01,SW,221,5.0,9.0,73,0.00,,SKC,0.03,VWS V13.00,2013-05-10 15:41:00,
2013-05-10 10:46:00,68.4,59.4,30.01,South,190,3.0,10.0,73,0.00,,SKC,0.03,VWS V13.00,2013-05-10 15:46:00,
2013-05-10 10:51:00,68.7,60.1,30.01,South,181,13.0,14.0,74,0.00,,SKC,0.03,VWS V13.00,2013-05-10 15:51:00,
2013-05-10 10:56:00,68.9,59.9,30.01,SSW,192,6.0,14.0,73,0.00,,SKC,0.03,VWS V13.00,2013-05-10 15:56:00,
2013-05-10 11:01:00,69.4,60.0,30.01,South,190,7.0,14.0,72,0.00,,SKC,0.03,VWS V13.00,2013-05-10 16:01:00,
2013-05-10 11:06:00,69.6,59.0,30.01,SW,217,10.0,20.0,69,0.00,,SKC,0.03,VWS V13.00,2013-05-10 16:06:00,
2013-05-10 11:11:00,69.9,59.7,30.01,SSW,196,3.0,20.0,70,0.00,,SKC,0.03,VWS V13.00,2013-05-10 16:11:00,
2013-05-10 11:16:00,70.4,60.2,30.01,WSW,239,11.0,20.0,70,0.00,,SKC,0.03,VWS V13.00,2013-05-10 16:16:00,
2013-05-10 11:21:00,70.7,59.6,30.00,South,175,4.0,20.0,68,0.00,,SKC,0.03,VWS V13.00,2013-05-10 16:21:00,
2013-05-10 11:26:00,70.9,59.4,30.00,SSW,210,14.0,20.0,67,0.00,,SKC,0.03,VWS V13.00,2013-05-10 16:26:00,
2013-05-10 11:31:00,70.6,58.7,30.00,SSW,195,13.0,20.0,66,0.00,,SKC,0.03,VWS V13.00,2013-05-10 16:31:00,
2013-05-10 11:36:00,70.4,60.2,30.00,SSW,200,8.0,13.0,70,0.00,,SKC,0.03,VWS V13.00,2013-05-10 16:36:00,
2013-05-10 11:41:00,70.4,60.2,30.00,SW,221,4.0,14.0,70,0.00,,SKC,0.03,VWS V13.00,2013-05-10 16:41:00,
2013-05-10 11:46:00,70.6,61.1,30.00,SSW,198,4.0,14.0,72,0.00,,SKC,0.03,VWS V13.00,2013-05-10 16:46:00,
2013-05-10 11:51:00,70.9,60.6,30.00,SW,225,4.0,14.0,70,0.00,,SKC,0.03,VWS V13.00,2013-05-10 16:51:00,
2013-05-10 11:56:00,71.1,60.4,30.00,SW,228,3.0,14.0,69,0.00,,SKC,0.03,VWS V13.00,2013-05-10 16:56:00,
2013-05-10 12:01:00,71.4,62.3,30.00,SW,226,5.0,14.0,73,0.00,,SKC,0.03,VWS V13.00,2013-05-10 17:01:00,
2013-05-10 12:06:00,71.5,60.4,30.00,SW,216,6.0,9.0,68,0.00,,SKC,0.03,VWS V13.00,2013-05-10 17:06:00,
2013-05-10 12:11:00,71.8,61.9,30.00,South,184,8.0,9.0,71,0.00,,SKC,0.03,VWS V13.00,2013-05-10 17:11:00,
2013-05-10 12:16:00,71.9,62.0,30.00,SSW,197,7.0,10.0,71,0.00,,SKC,0.03,VWS V13.00,2013-05-10 17:16:00,
2013-05-10 12:21:00,72.0,61.7,29.99,SSW,205,4.0,11.0,70,0.00,,SKC,0.03,VWS V13.00,2013-05-10 17:21:00,
2013-05-10 12:26:00,71.7,59.8,29.99,SW,221,7.0,20.0,66,0.00,,SKC,0.03,VWS V13.00,2013-05-10 17:26:00,
2013-05-10 12:31:00,71.5,60.0,29.99,South,171,5.0,20.0,67,0.00,,SKC,0.03,VWS V13.00,2013-05-10 17:31:00,
2013-05-10 12:36:00,71.9,60.8,29.98,SW,223,5.0,15.0,68,0.00,,SKC,0.03,VWS V13.00,2013-05-10 17:36:00,
2013-05-10 12:41:00,72.6,61.9,29.98,SW,218,6.0,15.0,69,0.00,,SKC,0.03,VWS V13.00,2013-05-10 17:41:00,
2013-05-10 12:46:00,72.9,60.0,29.97,SSW,196,7.0,18.0,64,0.00,,SKC,0.03,VWS V13.00,2013-05-10 17:46:00,
2013-05-10 12:51:00,72.7,60.3,29.97,SSW,195,8.0,19.0,65,0.00,,SKC,0.03,VWS V13.00,2013-05-10 17:51:00,
2013-05-10 12:56:00,72.8,60.4,29.97,SSW,202,15.0,19.0,65,0.00,,SKC,0.03,VWS V13.00,2013-05-10 17:56:00,
2013-05-10 13:00:00,72.3,59.9,29.98,SSW,202,13.0,19.0,65,0.00,,SKC,0.03,VWS V13.00,2013-05-10 18:00:00,
2013-05-10 13:05:00,72.1,60.1,29.97,SSW,213,7.0,16.0,66,0.00,,SKC,0.03,VWS V13.00,2013-05-10 18:05:00,
2013-05-10 13:10:00,71.9,59.5,29.98,SSW,196,8.0,22.0,65,0.00,,SKC,0.03,VWS V13.00,2013-05-10 18:10:00,
2013-05-10 13:15:00,71.8,58.5,29.98,SW,228,14.0,22.0,63,0.00,,SKC,0.03,VWS V13.00,2013-05-10 18:15:00,
2013-05-10 13:20:00,71.6,58.3,29.98,SW,225,6.0,22.0,63,0.00,,SKC,0.03,VWS V13.00,2013-05-10 18:20:00,
2013-05-10 13:25:00,71.3,58.5,29.97,SSW,202,8.0,22.0,64,0.00,,SKC,0.03,VWS V13.00,2013-05-10 18:25:00,
2013-05-10 13:30:00,71.2,58.4,29.97,WSW,245,5.0,22.0,64,0.00,,SKC,0.03,VWS V13.00,2013-05-10 18:30:00,
2013-05-10 13:35:00,71.1,58.3,29.96,WSW,238,4.0,13.0,64,0.00,,SKC,0.03,VWS V13.00,2013-05-10 18:35:00,
2013-05-10 13:40:00,71.0,57.3,29.97,SSW,196,9.0,20.0,62,0.00,,SKC,0.03,VWS V13.00,2013-05-10 18:40:00,
2013-05-10 13:45:00,70.7,57.1,29.96,WSW,257,7.0,20.0,62,0.00,,SKC,0.03,VWS V13.00,2013-05-10 18:45:00,
2013-05-10 13:50:00,70.5,57.8,29.96,West,266,7.0,20.0,64,0.00,,SKC,0.03,VWS V13.00,2013-05-10 18:50:00,
2013-05-10 13:55:00,70.4,57.7,29.97,SSW,211,7.0,20.0,64,0.00,,SKC,0.03,VWS V13.00,2013-05-10 18:55:00,
2013-05-10 14:00:00,70.4,57.7,29.96,SSW,203,5.0,20.0,64,0.00,,SKC,0.03,VWS V13.00,2013-05-10 19:00:00,
2013-05-10 14:05:00,70.5,58.6,29.96,SW,229,4.0,9.0,66,0.00,,SKC,0.03,VWS V13.00,2013-05-10 19:05:00,
2013-05-10 14:10:00,70.4,58.1,29.96,SSW,212,4.0,13.0,65,0.00,,SKC,0.03,VWS V13.00,2013-05-10 19:10:00,
2013-05-10 14:15:00,70.3,58.4,29.96,South,183,7.0,13.0,66,0.00,,SKC,0.03,VWS V13.00,2013-05-10 19:15:00,
2013-05-10 14:20:00,70.3,58.8,29.96,South,189,5.0,13.0,67,0.00,,SKC,0.03,VWS V13.00,2013-05-10 19:20:00,
2013-05-10 14:25:00,70.5,59.0,29.95,SSW,200,4.0,15.0,67,0.00,,SKC,0.03,VWS V13.00,2013-05-10 19:25:00,
2013-05-10 14:30:00,70.4,58.9,29.95,SSW,209,7.0,15.0,67,0.00,,SKC,0.03,VWS V13.00,2013-05-10 19:30:00,
2013-05-10 14:35:00,70.2,58.7,29.95,WSW,237,6.0,9.0,67,0.00,,SKC,0.03,VWS V13.00,2013-05-10 19:35:00,
2013-05-10 14:40:00,70.0,59.4,29.94,SSW,201,2.0,9.0,69,0.00,,SKC,0.03,VWS V13.00,2013-05-10 19:40:00,
2013-05-10 14:45:00,69.7,59.5,29.94,SSW,202,6.0,9.0,70,0.00,,SKC,0.03,VWS V13.00,2013-05-10 19:45:00,
2013-05-10 14:50:00,69.5,58.9,29.94,SSW,200,0.0,9.0,69,0.00,,SKC,0.03,VWS V13.00,2013-05-10 19:50:00,
2013-05-10 14:55:00,69.4,59.6,29.93,SSW,192,4.0,9.0,71,0.00,,SKC,0.03,VWS V13.00,2013-05-10 19:55:00,
2013-05-10 15:00:00,69.3,59.1,29.93,South,189,0.0,9.0,70,0.00,,SKC,0.03,VWS V13.00,2013-05-10 20:00:00,
2013-05-10 15:05:00,69.4,59.6,29.93,SSW,195,1.0,4.0,71,0.00,,SKC,0.03,VWS V13.00,2013-05-10 20:05:00,
2013-05-10 15:10:00,69.9,61.2,29.93,South,190,8.0,8.0,74,0.00,,SKC,0.03,VWS V13.00,2013-05-10 20:10:00,
2013-05-10 15:15:00,70.6,60.3,29.93,WSW,241,2.0,8.0,70,0.00,,SKC,0.03,VWS V13.00,2013-05-10 20:15:00,
2013-05-10 15:20:00,71.6,62.1,29.92,SSW,194,8.0,9.0,72,0.00,,SKC,0.03,VWS V13.00,2013-05-10 20:20:00,
2013-05-10 15:25:00,72.1,61.0,29.92,SW,217,6.0,9.0,68,0.00,,SKC,0.03,VWS V13.00,2013-05-10 20:25:00,
2013-05-10 15:30:00,72.2,60.2,29.92,WSW,239,5.0,10.0,66,0.00,,SKC,0.03,VWS V13.00,2013-05-10 20:30:00,
2013-05-10 15:35:00,72.2,61.1,29.92,South,180,5.0,9.0,68,0.00,,SKC,0.03,VWS V13.00,2013-05-10 20:35:00,
2013-05-10 15:40:00,72.0,59.6,29.92,SSW,198,7.0,10.0,65,0.00,,SKC,0.03,VWS V13.00,2013-05-10 20:40:00,
2013-05-10 15:45:00,71.8,59.8,29.92,SW,219,0.0,10.0,66,0.00,,SKC,0.03,VWS V13.00,2013-05-10 20:45:00,
2013-05-10 15:50:00,72.6,61.4,29.92,SW,234,4.0,10.0,68,0.00,,SKC,0.03,VWS V13.00,2013-05-10 20:50:00,
2013-05-10 15:55:00,73.5,62.3,29.92,South,184,9.0,11.0,68,0.00,,SKC,0.03,VWS V13.00,2013-05-10 20:55:00,
2013-05-10 16:00:00,73.3,60.4,29.92,SW,215,11.0,13.0,64,0.00,,SKC,0.03,VWS V13.00,2013-05-10 21:00:00,
2013-05-10 16:05:00,72.6,59.3,29.93,South,191,10.0,15.0,63,0.00,,SKC,0.03,VWS V13.00,2013-05-10 21:05:00,
2013-05-10 16:10:00,72.5,60.1,29.92,SSW,212,7.0,15.0,65,0.00,,SKC,0.03,VWS V13.00,2013-05-10 21:10:00,
2013-05-10 16:15:00,72.9,60.5,29.93,South,187,5.0,15.0,65,0.00,,SKC,0.03,VWS V13.00,2013-05-10 21:15:00,
2013-05-10 16:20:00,73.4,60.5,29.93,SW,217,7.0,15.0,64,0.00,,SKC,0.03,VWS V13.00,2013-05-10 21:20:00,
2013-05-10 16:25:00,73.1,58.4,29.93,SSW,210,13.0,19.0,60,0.00,,SKC,0.03,VWS V13.00,2013-05-10 21:25:00,
2013-05-10 16:30:00,72.4,57.8,29.93,WSW,238,8.0,24.0,60,0.00,,SKC,0.03,VWS V13.00,2013-05-10 21:30:00,
2013-05-10 16:35:00,71.9,57.3,29.93,WSW,247,6.0,11.0,60,0.00,,SKC,0.03,VWS V13.00,2013-05-10 21:35:00,
2013-05-10 16:40:00,71.6,57.0,29.93,SW,220,7.0,15.0,60,0.00,,SKC,0.03,VWS V13.00,2013-05-10 21:40:00,
2013-05-10 16:45:00,71.3,57.2,29.94,WSW,240,9.0,15.0,61,0.00,,SKC,0.03,VWS V13.00,2013-05-10 21:45:00,
2013-05-10 16:50:00,71.2,57.5,29.93,SSW,194,5.0,15.0,62,0.00,,SKC,0.03,VWS V13.00,2013-05-10 21:50:00,
2013-05-10 16:55:00,71.4,58.2,29.93,WSW,242,1.0,15.0,63,0.00,,SKC,0.03,VWS V13.00,2013-05-10 21:55:00,
2013-05-10 16:58:00,72.0,58.7,29.92,South,190,4.0,15.0,63,0.00,,SKC,0.03,VWS V13.00,2013-05-10 21:58:00,
2013-05-10 17:03:00,73.1,58.9,29.92,SSW,205,5.0,10.0,61,0.00,,SKC,0.03,VWS V13.00,2013-05-10 22:03:00,
2013-05-10 17:08:00,73.1,57.9,29.92,SW,236,4.0,10.0,59,0.00,,SKC,0.03,VWS V13.00,2013-05-10 22:08:00,
2013-05-10 17:13:00,72.5,57.8,29.91,SSW,209,1.0,10.0,60,0.00,,SKC,0.03,VWS V13.00,2013-05-10 22:13:00,
2013-05-10 17:18:00,71.8,57.6,29.91,SW,219,6.0,10.0,61,0.00,,SKC,0.03,VWS V13.00,2013-05-10 22:18:00,
2013-05-10 17:23:00,71.7,58.9,29.91,SW,233,5.0,10.0,64,0.00,,SKC,0.03,VWS V13.00,2013-05-10 22:23:00,
2013-05-10 17:28:00,72.1,58.8,29.91,West,262,6.0,12.0,63,0.00,,SKC,0.03,VWS V13.00,2013-05-10 22:28:00,
2013-05-10 17:33:00,71.7,58.5,29.90,South,170,9.0,14.0,63,0.00,,SKC,0.03,VWS V13.00,2013-05-10 22:33:00,
2013-05-10 17:38:00,71.1,57.4,29.91,SW,223,7.0,14.0,62,0.00,,SKC,0.03,VWS V13.00,2013-05-10 22:38:00,
2013-05-10 17:43:00,70.9,57.7,29.91,SSW,205,2.0,14.0,63,0.00,,SKC,0.03,VWS V13.00,2013-05-10 22:43:00,
2013-05-10 17:48:00,70.7,58.4,29.91,SW,227,7.0,14.0,65,0.00,,SKC,0.03,VWS V13.00,2013-05-10 22:48:00,
2013-05-10 17:53:00,70.4,58.5,29.90,SW,234,7.0,14.0,66,0.00,,SKC,0.03,VWS V13.00,2013-05-10 22:53:00,
2013-05-10 17:58:00,70.2,58.3,29.91,SSW,213,6.0,14.0,66,0.00,,SKC,0.03,VWS V13.00,2013-05-10 22:58:00,
2013-05-10 18:03:00,70.1,58.2,29.91,WSW,242,2.0,8.0,66,0.00,,SKC,0.03,VWS V13.00,2013-05-10 23:03:00,
2013-05-10 18:08:00,69.9,58.5,29.91,SSW,202,1.0,8.0,67,0.00,,SKC,0.03,VWS V13.00,2013-05-10 23:08:00,
2013-05-10 18:13:00,69.7,58.7,29.91,SW,229,0.0,9.0,68,0.00,,SKC,0.03,VWS V13.00,2013-05-10 23:13:00,
2013-05-10 18:18:00,69.6,58.6,29.91,South,180,3.0,9.0,68,0.00,,SKC,0.03,VWS V13.00,2013-05-10 23:18:00,
2013-05-10 18:23:00,69.4,58.8,29.91,South,189,2.0,9.0,69,0.00,,SKC,0.03,VWS V13.00,2013-05-10 23:23:00,
2013-05-10 18:28:00,69.2,58.6,29.91,SW,228,5.0,9.0,69,0.00,,SKC,0.03,VWS V13.00,2013-05-10 23:28:00,
2013-05-10 18:33:00,69.2,58.6,29.91,SSW,213,5.0,5.0,69,0.00,,SKC,0.03,VWS V13.00,2013-05-10 23:33:00,
2013-05-10 18:38:00,69.1,58.5,29.91,SSW,198,0.0,6.0,69,0.00,,SKC,0.03,VWS V13.00,2013-05-10 23:38:00,
2013-05-10 18:43:00,69.0,58.0,29.91,SW,217,0.0,6.0,68,0.00,,SKC,0.03,VWS V13.00,2013-05-10 23:43:00,
2013-05-10 18:48:00,68.9,58.3,29.91,SSW,202,5.0,6.0,69,0.00,,SKC,0.03,VWS V13.00,2013-05-10 23:48:00,
2013-05-10 18:53:00,68.8,57.8,29.91,South,190,3.0,6.0,68,0.00,,SKC,0.03,VWS V13.00,2013-05-10 23:53:00,
2013-05-10 18:58:00,68.8,58.2,29.92,SSW,196,2.0,6.0,69,0.00,,SKC,0.03,VWS V13.00,2013-05-10 23:58:00,
2013-05-10 19:03:00,68.6,58.4,29.92,South,189,3.0,4.0,70,0.00,,SKC,0.03,VWS V13.00,2013-05-11 00:03:00,
2013-05-10 19:07:00,68.3,58.5,29.92,South,189,1.0,4.0,71,0.00,,SKC,0.03,VWS V13.00,2013-05-11 00:07:00,
2013-05-10 19:12:00,68.0,58.7,29.92,South,186,0.0,4.0,72,0.00,,SKC,0.03,VWS V13.00,2013-05-11 00:12:00,
2013-05-10 19:17:00,67.9,58.5,29.93,South,174,5.0,7.0,72,0.00,,SKC,0.03,VWS V13.00,2013-05-11 00:17:00,
2013-05-10 19:22:00,67.8,58.1,29.93,SSW,196,2.0,7.0,71,0.00,,SKC,0.03,VWS V13.00,2013-05-11 00:22:00,
2013-05-10 19:27:00,67.7,58.0,29.92,South,174,6.0,7.0,71,0.00,,SKC,0.03,VWS V13.00,2013-05-11 00:27:00,
2013-05-10 19:32:00,67.6,58.3,29.92,South,171,1.0,2.0,72,0.00,,SKC,0.03,VWS V13.00,2013-05-11 00:32:00,
2013-05-10 19:37:00,67.4,58.1,29.92,South,182,4.0,6.0,72,0.00,,SKC,0.03,VWS V13.00,2013-05-11 00:37:00,
2013-05-10 19:42:00,67.3,58.0,29.92,South,176,1.0,6.0,72,0.00,,SKC,0.03,VWS V13.00,2013-05-11 00:42:00,
2013-05-10 19:47:00,67.0,58.1,29.92,South,188,1.0,6.0,73,0.00,,SKC,0.03,VWS V13.00,2013-05-11 00:47:00,
2013-05-10 19:52:00,66.8,57.9,29.92,South,188,4.0,6.0,73,0.00,,SKC,0.03,VWS V13.00,2013-05-11 00:52:00,
2013-05-10 19:57:00,66.6,57.7,29.93,SSW,194,1.0,6.0,73,0.00,,SKC,0.03,VWS V13.00,2013-05-11 00:57:00,
2013-05-10 20:02:00,66.3,57.8,29.93,South,189,1.0,3.0,74,0.00,,SKC,0.03,VWS V13.00,2013-05-11 01:02:00,
2013-05-10 20:07:00,66.1,57.6,29.93,South,190,1.0,5.0,74,0.00,,SKC,0.03,VWS V13.00,2013-05-11 01:07:00,
2013-05-10 20:12:00,65.9,57.4,29.93,SSW,194,4.0,5.0,74,0.00,,SKC,0.03,VWS V13.00,2013-05-11 01:12:00,
2013-05-10 20:17:00,65.7,57.6,29.93,South,178,5.0,5.0,75,0.00,,SKC,0.03,VWS V13.00,2013-05-11 01:17:00,
2013-05-10 20:22:00,65.7,57.6,29.93,South,189,3.0,5.0,75,0.00,,SKC,0.03,VWS V13.00,2013-05-11 01:22:00,
2013-05-10 20:27:00,65.7,57.9,29.93,SSW,194,4.0,5.0,76,0.00,,SKC,0.03,VWS V13.00,2013-05-11 01:27:00,
2013-05-10 20:32:00,65.8,57.7,29.93,South,183,1.0,4.0,75,0.00,,SKC,0.03,VWS V13.00,2013-05-11 01:32:00,
2013-05-10 20:37:00,65.7,57.6,29.93,SSW,198,4.0,5.0,75,0.00,,SKC,0.03,VWS V13.00,2013-05-11 01:37:00,
2013-05-10 20:42:00,65.8,58.0,29.93,SSW,200,0.0,5.0,76,0.00,,SKC,0.03,VWS V13.00,2013-05-11 01:42:00,
2013-05-10 20:47:00,65.7,57.9,29.94,SSW,200,0.0,6.0,76,0.00,,SKC,0.03,VWS V13.00,2013-05-11 01:47:00,
2013-05-10 20:52:00,65.7,57.9,29.94,South,184,1.0,6.0,76,0.00,,SKC,0.03,VWS V13.00,2013-05-11 01:52:00,
2013-05-10 20:57:00,65.6,57.8,29.93,South,184,0.0,6.0,76,0.00,,SKC,0.03,VWS V13.00,2013-05-11 01:57:00,
2013-05-10 21:02:00,65.6,57.8,29.93,SSE,158,3.0,5.0,76,0.00,,SKC,0.03,VWS V13.00,2013-05-11 02:02:00,
2013-05-10 21:07:00,65.5,58.1,29.94,South,171,4.0,5.0,77,0.00,,SKC,0.03,VWS V13.00,2013-05-11 02:07:00,
2013-05-10 21:12:00,65.5,58.1,29.94,South,171,3.0,6.0,77,0.00,,SKC,0.03,VWS V13.00,2013-05-11 02:12:00,
2013-05-10 21:17:00,65.4,58.0,29.94,South,184,5.0,7.0,77,0.00,,SKC,0.03,VWS V13.00,2013-05-11 02:17:00,
2013-05-10 21:22:00,65.4,58.4,29.94,South,190,4.0,9.0,78,0.00,,SKC,0.03,VWS V13.00,2013-05-11 02:22:00,
2013-05-10 21:27:00,65.3,58.3,29.93,South,183,5.0,9.0,78,0.00,,SKC,0.03,VWS V13.00,2013-05-11 02:27:00,
2013-05-10 21:32:00,65.2,58.5,29.93,South,189,5.0,5.0,79,0.00,,SKC,0.03,VWS V13.00,2013-05-11 02:32:00,
2013-05-10 21:37:00,65.0,58.7,29.93,South,173,5.0,7.0,80,0.00,,SKC,0.03,VWS V13.00,2013-05-11 02:37:00,
2013-05-10 21:42:00,64.8,59.2,29.94,South,178,6.0,9.0,82,0.00,,SKC,0.03,VWS V13.00,2013-05-11 02:42:00,
2013-05-10 21:47:00,64.7,59.1,29.94,SSW,206,5.0,9.0,82,0.00,,SKC,0.03,VWS V13.00,2013-05-11 02:47:00,
2013-05-10 21:52:00,64.5,59.6,29.94,SSW,195,4.0,9.0,84,0.00,,SKC,0.03,VWS V13.00,2013-05-11 02:52:00,
2013-05-10 21:57:00,64.3,59.4,29.94,South,187,4.0,9.0,84,0.00,,SKC,0.03,VWS V13.00,2013-05-11 02:57:00,
2013-05-10 22:02:00,64.2,59.6,29.94,SSW,194,5.0,5.0,85,0.00,,SKC,0.03,VWS V13.00,2013-05-11 03:02:00,
2013-05-10 22:07:00,64.0,59.4,29.94,SSW,204,2.0,6.0,85,0.00,,SKC,0.03,VWS V13.00,2013-05-11 03:07:00,
2013-05-10 22:12:00,63.9,59.6,29.94,South,191,0.0,6.0,86,0.00,,SKC,0.03,VWS V13.00,2013-05-11 03:12:00,
2013-05-10 22:17:00,63.7,59.4,29.94,South,191,1.0,6.0,86,0.00,,SKC,0.03,VWS V13.00,2013-05-11 03:17:00,
2013-05-10 22:22:00,63.5,59.6,29.94,South,180,0.0,6.0,87,0.00,,SKC,0.03,VWS V13.00,2013-05-11 03:22:00,
2013-05-10 22:27:00,63.4,59.8,29.94,South,180,0.0,6.0,88,0.00,,SKC,0.03,VWS V13.00,2013-05-11 03:27:00,
2013-05-10 22:32:00,63.1,59.5,29.94,South,180,0.0,1.0,88,0.00,,SKC,0.03,VWS V13.00,2013-05-11 03:32:00,
2013-05-10 22:37:00,63.0,59.7,29.95,SSW,192,0.0,4.0,89,0.00,,SKC,0.03,VWS V13.00,2013-05-11 03:37:00,
2013-05-10 22:42:00,62.7,59.7,29.95,South,180,2.0,4.0,90,0.00,,SKC,0.03,VWS V13.00,2013-05-11 03:42:00,
2013-05-10 22:47:00,62.7,60.0,29.95,SSE,159,2.0,6.0,91,0.00,,SKC,0.03,VWS V13.00,2013-05-11 03:47:00,
2013-05-10 22:52:00,62.9,60.2,29.95,South,184,2.0,6.0,91,0.00,,SKC,0.03,VWS V13.00,2013-05-11 03:52:00,
2013-05-10 22:57:00,63.1,60.4,29.95,South,184,0.0,6.0,91,0.00,,SKC,0.03,VWS V13.00,2013-05-11 03:57:00,
2013-05-10 23:01:00,63.1,60.1,29.95,South,184,0.0,6.0,90,0.00,,SKC,0.03,VWS V13.00,2013-05-11 04:01:00,
2013-05-10 23:06:00,63.2,60.5,29.95,SSW,211,1.0,4.0,91,0.00,,SKC,0.03,VWS V13.00,2013-05-11 04:06:00,
2013-05-10 23:11:00,63.2,60.2,29.94,South,177,3.0,4.0,90,0.00,,SKC,0.03,VWS V13.00,2013-05-11 04:11:00,
2013-05-10 23:16:00,63.3,60.3,29.94,South,186,2.0,5.0,90,0.00,,SKC,0.03,VWS V13.00,2013-05-11 04:16:00,
2013-05-10 23:21:00,63.4,60.7,29.94,South,186,0.0,5.0,91,0.00,,SKC,0.03,VWS V13.00,2013-05-11 04:21:00,
2013-05-10 23:26:00,63.5,60.5,29.94,South,186,0.0,5.0,90,0.00,,SKC,0.03,VWS V13.00,2013-05-11 04:26:00,
2013-05-10 23:31:00,63.5,60.5,29.93,South,186,0.0,5.0,90,0.00,,SKC,0.03,VWS V13.00,2013-05-11 04:31:00,
2013-05-10 23:36:00,63.3,60.6,29.94,South,186,0.0,0.0,91,0.00,,SKC,0.03,VWS V13.00,2013-05-11 04:36:00,
2013-05-10 23:41:00,63.2,60.5,29.94,South,186,0.0,0.0,91,0.00,,SKC,0.03,VWS V13.00,2013-05-11 04:41:00,
2013-05-10 23:46:00,63.1,60.4,29.93,South,186,0.0,2.0,91,0.00,,SKC,0.03,VWS V13.00,2013-05-11 04:46:00,
2013-05-10 23:51:00,63.1,60.4,29.93,South,171,1.0,4.0,91,0.00,,SKC,0.03,VWS V13.00,2013-05-11 04:51:00,
2013-05-10 23:56:00,63.2,60.5,29.93,South,182,4.0,5.0,91,0.00,,SKC,0.03,VWS V13.00,2013-05-11 04:56:00,